TimeEST,TemperatureF,Dew PointF,Humidity,Sea Level PressureIn,VisibilityMPH,Wind Direction,Wind SpeedMPH,Gust SpeedMPH,PrecipitationIn,Events,Conditions,WindDirDegrees,DateUTC
12:39 AM,-0.4,-7.6,72,30.33,10.0,WNW,8.1,-,0.00,,Scattered Clouds,290,2014-01-24 05:39:00
12:52 AM,-0.0,-9.0,66,30.49,10.0,WNW,9.2,-,0.00,,Partly Cloudy,290,2014-01-24 05:52:00
1:30 AM,-0.4,-9.4,66,30.32,10.0,West,8.1,-,N/A,,Scattered Clouds,270,2014-01-24 06:30:00
1:52 AM,-0.9,-8.0,72,30.51,10.0,West,9.2,-,N/A,,Scattered Clouds,280,2014-01-24 06:52:00
2:00 AM,-0.4,-9.4,66,30.34,7.0,West,8.1,-,N/A,,Mostly Cloudy,280,2014-01-24 07:00:00
2:29 AM,-0.4,-7.6,72,30.35,2.5,West,10.4,-,0.00,Snow,Light Snow,280,2014-01-24 07:29:00
2:41 AM,-0.4,-7.6,72,30.35,3.0,West,9.2,-,0.00,Snow,Light Snow,270,2014-01-24 07:41:00
2:52 AM,-0.9,-8.0,72,30.53,4.0,West,9.2,18.4,0.00,Snow,Light Snow,280,2014-01-24 07:52:00
3:11 AM,-0.4,-7.6,72,30.36,4.0,West,9.2,-,0.00,Snow,Light Snow,260,2014-01-24 08:11:00
3:52 AM,-2.0,-9.0,72,30.54,6.0,West,11.5,-,0.00,,Haze,280,2014-01-24 08:52:00
4:36 AM,-2.2,-9.4,71,30.37,10.0,WNW,11.5,-,N/A,,Overcast,290,2014-01-24 09:36:00
4:52 AM,-2.0,-9.0,72,30.55,8.0,West,11.5,-,N/A,,Overcast,280,2014-01-24 09:52:00
5:08 AM,-2.2,-9.4,71,30.37,7.0,WNW,10.4,-,N/A,,Overcast,290,2014-01-24 10:08:00
5:52 AM,-2.0,-9.0,72,30.56,5.0,WNW,9.2,-,N/A,,Haze,290,2014-01-24 10:52:00
6:23 AM,-2.2,-9.4,71,30.37,3.0,West,12.7,18.4,N/A,,Haze,270,2014-01-24 11:23:00
6:52 AM,-2.0,-9.0,72,30.56,4.0,West,6.9,-,N/A,,Haze,270,2014-01-24 11:52:00
7:43 AM,-2.2,-9.4,71,30.37,2.0,WSW,4.6,-,N/A,,Haze,250,2014-01-24 12:43:00
7:52 AM,-2.0,-9.0,72,30.57,2.5,WSW,3.5,-,N/A,,Haze,250,2014-01-24 12:52:00
8:02 AM,-2.2,-9.4,71,30.37,4.0,West,5.8,-,N/A,,Haze,260,2014-01-24 13:02:00
8:52 AM,-0.0,-8.0,69,30.54,7.0,WSW,3.5,-,N/A,,Overcast,240,2014-01-24 13:52:00
9:04 AM,-0.4,-7.6,72,30.35,10.0,SW,3.5,-,N/A,,Scattered Clouds,230,2014-01-24 14:04:00
9:52 AM,1.9,-8.0,63,30.54,10.0,SW,4.6,-,N/A,,Clear,230,2014-01-24 14:52:00
10:52 AM,6.1,-8.0,53,30.54,10.0,WSW,5.8,-,N/A,,Clear,240,2014-01-24 15:52:00
11:52 AM,10.9,-8.0,42,30.51,10.0,SW,5.8,-,N/A,,Clear,220,2014-01-24 16:52:00
12:52 PM,14.0,-8.0,37,30.48,10.0,SW,12.7,17.3,N/A,,Clear,230,2014-01-24 17:52:00
1:52 PM,15.1,-7.1,37,30.43,10.0,WSW,12.7,-,N/A,,Clear,250,2014-01-24 18:52:00
2:52 PM,17.1,-6.0,36,30.37,10.0,WSW,10.4,-,N/A,,Clear,240,2014-01-24 19:52:00
3:52 PM,18.0,-5.1,36,30.34,10.0,West,10.4,-,N/A,,Clear,260,2014-01-24 20:52:00
4:52 PM,18.0,-5.1,36,30.30,10.0,SW,6.9,-,N/A,,Clear,230,2014-01-24 21:52:00
5:52 PM,16.0,-7.1,36,30.29,10.0,WSW,8.1,-,N/A,,Clear,250,2014-01-24 22:52:00
6:52 PM,16.0,-11.9,28,30.25,10.0,SSW,5.8,-,N/A,,Clear,210,2014-01-24 23:52:00
7:52 PM,16.0,-11.9,28,30.21,10.0,SSW,6.9,-,N/A,,Clear,200,2014-01-25 00:52:00
8:52 PM,18.0,-14.1,23,30.16,10.0,SSW,3.5,-,N/A,,Clear,200,2014-01-25 01:52:00
9:52 PM,19.9,-11.9,24,30.12,10.0,SW,4.6,-,N/A,,Clear,220,2014-01-25 02:52:00
10:52 PM,19.9,-13.0,23,30.08,10.0,WSW,9.2,-,N/A,,Clear,250,2014-01-25 03:52:00
11:52 PM,24.1,-9.0,23,30.01,10.0,WSW,13.8,-,N/A,,Clear,250,2014-01-25 04:52:00